Location: Gammelsbach
(49.5261°N, 8.9630°E)
Time: 04:43:08
(UTC+00:00)

ATLAS 3B R/B - Pass Details

Date: 17 June 2025
Orbit: 935 x 1258 km, 63.8° (Epoch: 12 July)

Event Time Altitude Azimuth Distance (km) Brightness Sun altitude
Rises 22:29:23 0° 314° (NW) 4,207 6.8 -16.0°
Reaches altitude 10° 22:32:18 10° 320° (NW) 3,248 6.2 -16.1°
Maximum altitude 22:40:01 52° 36° (NE) 1,521 3.7 -16.4°
Drops below altitude 10° 22:47:30 10° 112° (ESE) 3,162 4.9 -16.6°
Enters shadow 22:50:11 - 117° (ESE) 4,051 5.4 -16.7°
